Simultaneous Nadir Overpasses (SNOs) Predictions

Prediction of SNOs between GOES-17 and LANDSAT-8 Satellite Orbit:

Table of predicted SNOs for the next 14.0 days since TLE Epoch: 1/28/2023
Index Date Time (GOES-17) GOES-17 Lat,Lon LANDSAT-8 Lat,Lon Distance(km) Time Diff (sec)
1 01/28/2023 05:59:37 -0.01,-118.53 0.42,-116.48 233.36 80
2 01/28/2023 18:18:10 0.00,-117.95 0.78,-121.61 416.64 80
3 01/30/2023 05:47:18 -0.00,-116.21 0.57,-113.42 315.99 80
4 01/30/2023 18:05:51 0.00,-115.62 0.63,-118.56 334.12 80
5 02/01/2023 05:34:59 -0.00,-113.88 0.73,-110.37 398.38 80
6 02/01/2023 17:53:33 0.00,-113.29 0.46,-115.51 251.78 80
7 02/03/2023 05:22:40 -0.01,-111.54 0.91,-107.32 480.77 80
8 02/03/2023 17:41:13 0.01,-110.96 0.34,-112.45 169.40 80
9 02/05/2023 17:28:53 0.01,-108.63 0.19,-109.39 86.81 80
10 02/07/2023 17:16:33 0.02,-106.30 0.03,-106.33 4.02 80
11 02/09/2023 17:06:53 0.02,-103.97 -0.14,-103.27 79.05 80
